BEIDOU-3S M2S (C57)

Last updated on Wed Dec 20 2023 00:03:13 GMT+0000 (Coordinated Universal Time)

1 40748U 15037A 23353.11142170 -.00000069 00000+0 00000+0 0 9996 2 40748 55.6002 333.1813 0012544 259.2349 100.6267 1.86232985 57159

Satellite not in orbit

BEIDOU-3S M2S (C57)